TimeEDT,TemperatureF,Dew PointF,Humidity,Sea Level PressureIn,VisibilityMPH,Wind Direction,Wind SpeedMPH,Gust SpeedMPH,PrecipitationIn,Events,Conditions,WindDirDegrees,DateUTC
12:53 AM,66.9,62.1,84,29.87,10.0,Calm,Calm,-,N/A,,Clear,0,2012-10-20 04:53:00
1:53 AM,64.9,61.0,87,29.87,10.0,Calm,Calm,-,N/A,,Clear,0,2012-10-20 05:53:00
2:53 AM,68.0,59.0,73,29.86,10.0,WNW,5.8,-,N/A,,Clear,290,2012-10-20 06:53:00
3:53 AM,66.0,55.0,68,29.86,10.0,West,4.6,-,N/A,,Clear,280,2012-10-20 07:53:00
4:53 AM,64.9,50.0,58,29.87,10.0,West,4.6,-,N/A,,Clear,280,2012-10-20 08:53:00
6:53 AM,61.0,51.1,70,29.90,10.0,West,4.6,-,N/A,,Clear,280,2012-10-20 10:53:00
7:53 AM,57.0,51.1,81,29.92,10.0,Calm,Calm,-,N/A,,Clear,0,2012-10-20 11:53:00
8:53 AM,64.0,52.0,65,29.94,10.0,NW,5.8,-,N/A,,Clear,310,2012-10-20 12:53:00
9:53 AM,68.0,50.0,52,29.96,10.0,NW,6.9,-,N/A,,Clear,320,2012-10-20 13:53:00
10:53 AM,73.0,48.0,41,29.95,10.0,NW,9.2,-,N/A,,Clear,320,2012-10-20 14:53:00
11:53 AM,75.9,46.0,35,29.94,10.0,NNW,6.9,-,N/A,,Clear,340,2012-10-20 15:53:00
12:53 PM,78.1,43.0,29,29.92,10.0,North,5.8,-,N/A,,Clear,350,2012-10-20 16:53:00
1:53 PM,79.0,39.9,25,29.90,10.0,West,8.1,-,N/A,,Clear,260,2012-10-20 17:53:00
2:53 PM,81.0,39.9,23,29.88,10.0,West,9.2,-,N/A,,Clear,260,2012-10-20 18:53:00
3:53 PM,81.0,41.0,24,29.87,10.0,WNW,8.1,-,N/A,,Clear,300,2012-10-20 19:53:00
4:53 PM,80.1,39.0,23,29.87,10.0,Calm,Calm,-,N/A,,Clear,0,2012-10-20 20:53:00
5:53 PM,78.1,42.1,28,29.88,10.0,WNW,9.2,-,N/A,,Clear,300,2012-10-20 21:53:00
6:53 PM,73.9,45.0,35,29.89,10.0,WNW,3.5,-,N/A,,Clear,290,2012-10-20 22:53:00
7:53 PM,64.9,54.0,68,29.91,10.0,Calm,Calm,-,N/A,,Clear,0,2012-10-20 23:53:00
8:53 PM,63.0,54.0,72,29.93,10.0,Calm,Calm,-,N/A,,Clear,0,2012-10-21 00:53:00
9:53 PM,62.1,55.0,78,29.95,10.0,Calm,Calm,-,N/A,,Clear,0,2012-10-21 01:53:00
10:53 PM,62.1,53.1,72,29.97,10.0,Calm,Calm,-,N/A,,Clear,0,2012-10-21 02:53:00
11:53 PM,57.0,53.1,87,29.98,10.0,Calm,Calm,-,N/A,,Clear,0,2012-10-21 03:53:00